[[{"header":{"parameterUnit":"m.s-1","parameterCategory":1,"la1":30.2991,"la2":30.254,"lo1":-89.0895,"lo2":-89.0444,"dy":0.0017,"dx":0.0017,"nx":28,"ny":28,"refTime":"2023-11-02T03:00:00:Z","depth":0,"parameterNumber":2,"parameterNumberName":"U-component_of_WINDS"},"data":[0,0,0,0,0,0,0,0,0,0,0,0,0,0,0,0,0,0,0,0,0,0,0,0,0,0,0,0,0,0,0,0,0,0,0,0,0,0,0,0,0,0,0,0,0,0,0,0,0,0,0,0,0,0,0,0,0,0,-4.1385,-4.1386,0,-4.1439,-4.144,-4.144,-4.1269,-4.1264,-4.1259,-4.1254,-4.1313,-4.1319,-4.1325,0,0,0,0,0,0,0,0,0,0,0,0,0,-4.1138,-4.1144,-4.1385,-4.1386,-4.1387,-4.1439,-4.144,-4.144,-4.127,-4.1264,-4.1258,-4.1252,-4.1311,-4.1318,-4.1326,0,0,0,0,0,0,0,0,0,0,0,0,0,-4.1224,-4.1145,-4.1385,-4.1308,-4.1302,-4.1439,-4.144,-4.144,-4.1272,-4.1264,-4.1256,-4.1249,-4.1308,-4.1318,-4.1327,-4.1542,0,0,-4.1356,-4.1361,0,0,0,0,0,0,0,0,-4.122,-4.1234,-4.1319,-4.1314,-4.1307,-4.1339,-4.1374,-4.1475,-4.1274,-4.1283,-4.1254,-4.1245,-4.1328,-4.1336,-4.1363,-4.1545,-4.1547,-4.1357,-4.1363,-4.1367,-4.137,0,0,0,0,0,0,0,-4.1214,-4.123,-4.1407,-4.132,-4.1313,-4.1271,-4.1275,-4.1392,-4.1349,-4.1282,-4.1269,-4.1278,-4.1323,-4.1354,-4.1363,-4.1548,-4.1357,-4.1365,-4.1371,-4.1375,-4.1908,-4.1916,0,0,0,0,0,0,-4.1218,-4.1226,-4.1405,-4.1408,-4.1243,-4.1282,-4.1286,-4.1337,-4.1347,-4.1341,-4.1285,-4.127,-4.1342,-4.1352,-4.1365,-4.1616,-4.1367,-4.1376,-4.1382,-4.19,-4.191,-4.1919,0,0,0,0,0,0,-4.1213,-4.1235,-4.1403,-4.1314,-4.1332,-4.1295,-4.1353,-4.1342,-4.1372,-4.1349,-4.1341,-4.1324,-4.1336,-4.1351,-4.1499,-4.1616,-4.138,-4.1389,-4.189,-4.1903,-4.1915,-4.2123,0,0,0,0,0,0,-4.1207,-4.1234,-4.1315,-4.1317,-4.1338,-4.1536,-4.136,-4.1349,-4.1389,-4.137,-4.1384,-4.1378,-4.1331,-4.1485,-4.1508,-4.1625,-4.1397,-4.188,-4.1896,-4.1911,-4.2105,-4.2141,-4.2172,0,0,0,0,0,-4.1198,-4.1373,-4.132,-4.1343,-4.1438,-4.1543,-4.1555,-4.1495,-4.1399,-4.148,-4.1465,-4.1378,-4.16,-4.1502,-4.1526,-4.1648,-4.1872,-4.1891,-4.191,-4.2091,-4.2134,-4.2171,0,0,0,0,0,0,-4.1387,-4.1372,-4.1313,-4.1493,-4.1521,-4.1514,-4.1615,-4.1544,-4.16,-4.158,-4.1505,-4.1509,-4.1671,-4.1674,-4.1565,-4.1856,-4.1719,-4.1744,-4.1848,-4.1889,-4.1922,-4.1918,-4.1405,0,0,0,0,0,-4.145,-4.1536,-4.1518,-4.1678,-4.1695,-4.1653,-4.1697,-4.1648,-4.1674,-4.1685,-4.1681,-4.171,-4.1786,-4.1838,-4.1906,-4.2105,-4.2105,-4.22,-4.2233,-4.2261,-4.2283,-4.2388,-4.243,-4.1982,-4.1981,-4.1981,0,0,-4.158,-4.1582,-4.1641,-4.1716,-4.1732,-4.1823,-4.1664,-4.1768,-4.1835,-4.1701,-4.184,-4.1838,-4.1866,-4.204,-4.2116,-4.2047,-4.2407,-4.2285,-4.2307,-4.2314,-4.2411,-4.2454,-4.2492,-4.1994,-4.1992,-4.199,0,0,-4.1864,-4.1874,-4.2009,-4.2027,-4.2052,-4.2023,-4.2055,-4.206,-4.2053,-4.219,-4.2092,-4.2171,-4.2304,-4.2327,-4.2357,-4.2649,-4.2571,-4.2673,-4.2847,-4.295,-4.2985,-4.3016,-4.312,-4.3158,-4.2696,-4.2696,-4.2697,0,-4.2023,-4.2156,-4.2087,-4.2197,-4.2233,-4.2115,-4.2251,-4.2272,-4.232,-4.2348,-4.2269,-4.2432,-4.2443,-4.262,-4.2691,-4.2719,-4.2754,-4.2672,-4.2985,-4.3015,-4.3043,-4.3142,-4.3181,-4.2709,-4.2707,-4.2706,-4.2705,0,-4.235,-4.2444,-4.255,-4.2596,-4.2644,-4.2767,-4.2717,-4.2774,-4.2722,-4.2701,-4.2843,-4.2851,-4.2919,-4.2957,-4.2908,-4.3129,-4.3085,-4.2997,-4.2858,-4.3099,-4.3191,-4.3228,-4.2726,-4.2722,-4.2718,-4.2715,0,0,-4.2755,-4.2761,-4.2802,-4.2821,-4.2839,-4.2911,-4.3028,-4.3093,-4.3143,-4.318,-4.3277,-4.3391,-4.3309,-4.3343,-4.3295,-4.3386,-4.3616,-4.3286,-4.3286,-4.3347,-4.3859,-4.3925,-4.397,-4.3564,-4.3571,-4.3577,-4.3857,0,-4.3034,-4.3234,-4.3175,-4.3376,-4.3462,-4.3351,-4.3453,-4.3476,-4.346,-4.353,-4.3512,-4.3595,-4.3481,-4.3501,-4.3585,-4.357,-4.3718,-4.3549,-4.3654,-4.3659,-4.3651,-4.4018,-4.4088,-4.4352,-4.3892,-4.3898,-4.3903,0,-4.3387,-4.3435,-4.3645,-4.3648,-4.3681,-4.3774,-4.3829,-4.3898,-4.3922,-4.3903,-4.3941,-4.3874,-4.399,-4.385,-4.4009,-4.3896,-4.3935,-4.3934,-4.3943,-4.3951,-4.3796,-4.4036,-4.4435,-4.4475,-4.3958,-4.3954,-4.395,0,-4.3661,-4.3779,-4.3919,-4.3939,-4.3947,-4.4014,-4.4021,-4.4037,-4.4079,-4.4127,-4.4154,-4.4216,-4.425,-4.43,-4.4252,-4.4154,-4.4418,-4.4274,-4.4407,-4.4409,-4.4468,-4.4465,-4.4879,-4.4494,-4.4493,-4.4492,-4.4492,0,-4.3979,-4.4111,-4.4042,-4.4129,-4.4273,-4.4205,-4.4351,-4.4345,-4.436,-4.4443,-4.4351,-4.4432,-4.4363,-4.4438,-4.4401,-4.4539,-4.4555,-4.4544,-4.4533,-4.4552,-4.4554,-4.4577,-4.4558,-4.4503,-4.4501,-4.4499,-4.4497,0,-4.431,-4.4269,-4.4414,-4.4409,-4.4411,-4.4518,-4.4513,-4.4593,-4.457,-4.4677,-4.4698,-4.4663,-4.4746,-4.4702,-4.4789,-4.4764,-4.4942,-4.4906,-4.4934,-4.4924,-4.5059,-4.5047,-4.5503,-4.5559,-4.5138,-4.5142,-4.5146,0,-4.4515,-4.4614,-4.4619,-4.4668,-4.468,-4.476,-4.4803,-4.4739,-4.4788,-4.4822,-4.4898,-4.4973,-4.5029,-4.5168,-4.515,-4.5216,-4.5181,-4.5336,-4.519,-4.5207,-4.5183,-4.5177,-4.5187,-4.5366,-4.5371,-4.5375,-4.5378,0,-4.4884,-4.4858,-4.4923,-4.4981,-4.5034,-4.5076,-4.5111,-4.5157,-4.5094,-4.5153,-4.5236,-4.528,-4.5368,-4.5444,-4.55,-4.5507,-4.5434,-4.5424,-4.5458,-4.5479,-4.5491,-4.5486,-4.5014,-4.5414,-4.541,-4.5407,-4.5405,-4.5404,-4.5158,-4.524,-4.5257,-4.5331,-4.5351,-4.5385,-4.546,-4.5445,-4.5513,-4.5579,-4.5537,-4.5636,-4.5656,-4.5724,-4.5741,-4.5818,-4.5756,-4.5805,-4.5818,-4.5831,-4.5849,-4.5479,-4.5828,-4.5827,-4.5826,-4.5825,-4.5824,0,-4.5521,-4.5526,-4.5595,-4.5646,-4.5706,-4.5629,-4.5663,-4.5718,-4.5805,-4.583,-4.5887,-4.5983,-4.6056,-4.6044,-4.611,-4.6174,-4.6141,-4.6193,-4.6188,-4.6191,-4.5901,-4.5864,-4.6218,-4.6218,-4.6218,-4.6218,-4.6218,-4.6218,-4.5717,-4.5853,-4.5829,-4.5974,-4.5977,-4.6071,-4.6098,-4.6129,-4.6149,-4.6259,-4.6319,-4.631,-4.6321,-4.6387,-4.645,-4.6445,-4.6474,-4.6539,-4.6521,-4.625,-4.6211,-4.6174,-4.614,-4.6546,-4.6546,-4.6804,-4.6807,-4.6809]},{"header":{"parameterUnit":"m.s-1","parameterCategory":1,"la1":30.2991,"la2":30.254,"lo1":-89.0895,"lo2":-89.0444,"dy":0.0017,"dx":0.0017,"nx":28,"ny":28,"refTime":"2023-11-02T03:00:00:Z","depth":0,"parameterNumber":3,"parameterNumberName":"V-component_of_WINDS"},"data":[0,0,0,0,0,0,0,0,0,0,0,0,0,0,0,0,0,0,0,0,0,0,0,0,0,0,0,0,0,0,0,0,0,0,0,0,0,0,0,0,0,0,0,0,0,0,0,0,0,0,0,0,0,0,0,0,0,0,-1.8432,-1.8432,0,-1.8484,-1.8485,-1.8485,-1.8525,-1.8525,-1.8526,-1.8526,-1.8575,-1.8576,-1.8577,0,0,0,0,0,0,0,0,0,0,0,0,0,-1.8361,-1.8362,-1.8432,-1.8432,-1.8433,-1.8484,-1.8485,-1.8485,-1.8525,-1.8525,-1.8526,-1.8526,-1.8575,-1.8576,-1.8577,0,0,0,0,0,0,0,0,0,0,0,0,0,-1.84,-1.8362,-1.8432,-1.8459,-1.8462,-1.8484,-1.8485,-1.8486,-1.8525,-1.8525,-1.8526,-1.8526,-1.8574,-1.8576,-1.8577,-1.8575,0,0,-1.8582,-1.8582,0,0,0,0,0,0,0,0,-1.8398,-1.8403,-1.8454,-1.8457,-1.846,-1.8499,-1.8478,-1.8515,-1.8524,-1.8501,-1.8526,-1.8527,-1.8549,-1.8552,-1.8561,-1.8577,-1.8579,-1.8582,-1.8583,-1.8583,-1.8584,0,0,0,0,0,0,0,-1.8395,-1.8401,-1.8452,-1.8455,-1.8459,-1.8467,-1.8473,-1.8485,-1.8521,-1.8503,-1.8506,-1.8512,-1.8551,-1.8559,-1.8562,-1.858,-1.8582,-1.8583,-1.8584,-1.8584,-1.8595,-1.8594,0,0,0,0,0,0,-1.8389,-1.8398,-1.8451,-1.8454,-1.843,-1.8468,-1.8475,-1.8486,-1.8521,-1.8527,-1.8511,-1.8513,-1.8557,-1.8561,-1.8564,-1.8562,-1.8583,-1.8585,-1.8585,-1.8595,-1.8594,-1.8594,0,0,0,0,0,0,-1.8387,-1.8393,-1.8449,-1.8427,-1.8435,-1.8468,-1.848,-1.8486,-1.8495,-1.8527,-1.8533,-1.8514,-1.8557,-1.8562,-1.8572,-1.8565,-1.8585,-1.8586,-1.8596,-1.8595,-1.8594,-1.8559,0,0,0,0,0,0,-1.8385,-1.8392,-1.8393,-1.8427,-1.8436,-1.8457,-1.848,-1.8487,-1.8498,-1.8502,-1.8531,-1.8537,-1.8558,-1.8569,-1.8573,-1.8567,-1.8588,-1.8597,-1.8595,-1.8594,-1.8561,-1.8557,-1.8554,0,0,0,0,0,-1.8382,-1.8381,-1.8393,-1.8399,-1.8438,-1.8456,-1.8461,-1.8487,-1.8498,-1.8498,-1.8518,-1.8536,-1.8565,-1.857,-1.8575,-1.8569,-1.8597,-1.8596,-1.8595,-1.8563,-1.8558,-1.8554,0,0,0,0,0,0,-1.8344,-1.8386,-1.84,-1.8409,-1.8429,-1.8463,-1.8464,-1.8481,-1.8498,-1.85,-1.853,-1.8536,-1.8542,-1.8557,-1.8561,-1.8567,-1.8583,-1.8583,-1.8558,-1.8553,-1.855,-1.8546,-1.8589,0,0,0,0,0,-1.8337,-1.8351,-1.8385,-1.839,-1.84,-1.843,-1.8439,-1.8457,-1.8478,-1.8486,-1.8508,-1.8526,-1.8539,-1.8547,-1.8561,-1.8564,-1.857,-1.8562,-1.8558,-1.8555,-1.8554,-1.8554,-1.8551,-1.8589,-1.8589,-1.8589,0,0,-1.8322,-1.8347,-1.8353,-1.8383,-1.8401,-1.8412,-1.8437,-1.8448,-1.8456,-1.8488,-1.8498,-1.8514,-1.8536,-1.8542,-1.8545,-1.8554,-1.8545,-1.8553,-1.8551,-1.8551,-1.8553,-1.8549,-1.8546,-1.8589,-1.8589,-1.8589,0,0,-1.8301,-1.8321,-1.8327,-1.8344,-1.8371,-1.8391,-1.8392,-1.8423,-1.8435,-1.8446,-1.847,-1.8479,-1.8501,-1.8516,-1.8526,-1.8509,-1.8525,-1.8512,-1.8493,-1.8493,-1.849,-1.8488,-1.848,-1.8477,-1.8511,-1.8511,-1.8511,0,-1.8279,-1.8298,-1.8327,-1.8337,-1.8349,-1.8379,-1.8384,-1.8398,-1.8427,-1.8434,-1.8444,-1.8472,-1.8489,-1.8498,-1.8493,-1.8501,-1.8502,-1.8509,-1.8489,-1.8486,-1.8484,-1.8477,-1.8474,-1.8509,-1.851,-1.851,-1.851,0,-1.8269,-1.8282,-1.8283,-1.8311,-1.8323,-1.833,-1.8358,-1.8367,-1.8383,-1.8401,-1.8411,-1.8433,-1.8451,-1.8455,-1.8471,-1.8465,-1.8469,-1.8483,-1.85,-1.8478,-1.8472,-1.847,-1.8507,-1.8507,-1.8508,-1.8508,0,0,-1.8225,-1.8269,-1.8269,-1.8281,-1.8312,-1.8322,-1.8329,-1.8348,-1.8354,-1.8372,-1.8378,-1.8396,-1.8409,-1.842,-1.8438,-1.8439,-1.8421,-1.8453,-1.8453,-1.8445,-1.8414,-1.8402,-1.8398,-1.8433,-1.8432,-1.8432,-1.8411,0,-1.8208,-1.8225,-1.825,-1.8258,-1.8269,-1.8297,-1.8303,-1.8321,-1.8338,-1.8349,-1.8367,-1.8379,-1.8396,-1.8403,-1.8404,-1.8423,-1.8415,-1.8425,-1.8436,-1.8436,-1.8429,-1.8396,-1.8383,-1.8363,-1.8409,-1.8409,-1.8409,0,-1.819,-1.8207,-1.8216,-1.8245,-1.825,-1.8256,-1.8274,-1.8285,-1.8305,-1.8317,-1.833,-1.8349,-1.8356,-1.8372,-1.8381,-1.8387,-1.8393,-1.8403,-1.8403,-1.8404,-1.842,-1.8394,-1.8357,-1.8354,-1.8405,-1.8406,-1.8406,0,-1.8155,-1.8181,-1.8189,-1.8199,-1.8233,-1.8236,-1.825,-1.8271,-1.828,-1.8296,-1.8302,-1.8318,-1.8326,-1.8337,-1.8359,-1.8369,-1.8365,-1.8383,-1.8374,-1.8373,-1.8371,-1.8371,-1.8333,-1.8377,-1.8377,-1.8377,-1.8377,0,-1.8132,-1.8136,-1.8174,-1.8179,-1.8183,-1.8212,-1.8215,-1.8231,-1.825,-1.8257,-1.8282,-1.8288,-1.8318,-1.8326,-1.8344,-1.8347,-1.8351,-1.836,-1.8364,-1.8357,-1.8356,-1.836,-1.8362,-1.8376,-1.8376,-1.8376,-1.8377,0,-1.8094,-1.812,-1.8131,-1.8162,-1.817,-1.8171,-1.8197,-1.8202,-1.822,-1.8228,-1.8232,-1.826,-1.8271,-1.8295,-1.8313,-1.8324,-1.8323,-1.8332,-1.8317,-1.8319,-1.8308,-1.8308,-1.8271,-1.8267,-1.8314,-1.8314,-1.8314,0,-1.8077,-1.8081,-1.8112,-1.812,-1.8133,-1.8144,-1.8153,-1.8181,-1.819,-1.8213,-1.8214,-1.8227,-1.824,-1.8256,-1.8277,-1.829,-1.8298,-1.8284,-1.83,-1.8292,-1.8296,-1.8295,-1.8295,-1.828,-1.828,-1.8279,-1.8279,0,-1.8044,-1.8056,-1.807,-1.8087,-1.8098,-1.8113,-1.8129,-1.8133,-1.8164,-1.8172,-1.8184,-1.8194,-1.8212,-1.8224,-1.824,-1.8253,-1.827,-1.8274,-1.8272,-1.8264,-1.8254,-1.8258,-1.8305,-1.8274,-1.8275,-1.8275,-1.8275,-1.8275,-1.8015,-1.8019,-1.8041,-1.8055,-1.807,-1.8084,-1.809,-1.8109,-1.812,-1.8137,-1.8153,-1.8163,-1.8182,-1.8205,-1.8216,-1.8224,-1.8233,-1.823,-1.823,-1.8228,-1.8224,-1.8254,-1.8227,-1.8227,-1.8227,-1.8227,-1.8228,0,-1.7982,-1.7997,-1.801,-1.8032,-1.8042,-1.8059,-1.8077,-1.8084,-1.8093,-1.811,-1.8121,-1.8134,-1.8146,-1.8167,-1.8181,-1.8182,-1.819,-1.8184,-1.8184,-1.8186,-1.8217,-1.8216,-1.8178,-1.8178,-1.8178,-1.8178,-1.8178,-1.8178,-1.7965,-1.7972,-1.7987,-1.8001,-1.8016,-1.8028,-1.8036,-1.8048,-1.8062,-1.8076,-1.8086,-1.81,-1.8118,-1.8133,-1.8143,-1.8149,-1.8152,-1.8144,-1.8152,-1.818,-1.8184,-1.8189,-1.8188,-1.8144,-1.8144,-1.812,-1.812,-1.812]}]]